Hourly Data Report for September 13, 2017

All times are specified in Local Standard Time (LST). Add 1 hour to adjust for Daylight Saving Time where and when it is observed.

SAINT JOHN A
NEW BRUNSWICK

45°18'58.000" N
65°53'24.000" W
108.80 m
8104901
71609
YSJ

Download Data

Hourly Data (September 2017)
Hourly Data Report for September 13, 2017
Temp Definition
°C
Dew Point Temp Definition
°C
Rel Hum Definition
%
Wind Dir Definition
10's deg

Wind Spd Definition
km/h
Visibility Definition
km
Stn Press Definition
kPa
Hmdx Definition


Wind Chill Definition


Weather Definition


TIME
00:00 Legend Double Dagger 11.9 11.1 95 16 4 24.1 99.35     LegendNANA
01:00 Legend Double Dagger 10.7 10.0 95 36 1 24.1 99.38     LegendNANA
02:00 Legend Double Dagger 10.8 10.0 94 23 3 24.1 99.38     Mainly Clear
03:00 Legend Double Dagger 9.9 9.1 95 36 2 24.1 99.39     LegendNANA
04:00 Legend Double Dagger 9.1 8.3 95 36 1 24.1 99.41     LegendNANA
05:00 Legend Double Dagger 8.2 7.6 96 36 1 24.1 99.43     Clear
06:00 Legend Double Dagger 7.3 7.1 98 19 3 24.1 99.48     LegendNANA
07:00 Legend Double Dagger 9.5 9.0 97 36 2 24.1 99.55     LegendNANA
08:00 Legend Double Dagger 16.5 13.4 82 28 3 24.1 99.58     Clear
09:00 Legend Double Dagger 19.5 13.4 67 33 14 24.1 99.60     LegendNANA
10:00 Legend Double Dagger 20.7 13.5 63 27 10 24.1 99.59     LegendNANA
11:00 Legend Double Dagger 22.6 13.0 54 28 12 24.1 99.57 25   Clear
12:00 Legend Double Dagger 24.2 13.6 51 25 13 24.1 99.54 27   LegendNANA
13:00 Legend Double Dagger 25.2 12.9 46 24 14 24.1 99.52 28   LegendNANA
14:00 Legend Double Dagger 24.5 13.9 51 19 21 24.1 99.48 28   Clear
15:00 Legend Double Dagger 23.6 13.8 53 20 19 24.1 99.46 27   LegendNANA
16:00 Legend Double Dagger 22.6 13.9 58 22 17 24.1 99.45 26   LegendNANA
17:00 Legend Double Dagger 20.8 12.4 59 21 28 24.1 99.45     Clear
18:00 Legend Double Dagger 18.4 12.8 70 22 10 24.1 99.49     LegendNANA
19:00 Legend Double Dagger 16.1 12.4 79 21 11 24.1 99.52     LegendNANA
20:00 Legend Double Dagger 14.8 12.5 86 23 9 24.1 99.56     Mainly Clear
21:00 Legend Double Dagger 13.5 12.3 92 19 9 24.1 99.56     LegendNANA
22:00 Legend Double Dagger 12.5 11.8 95 19 7 24.1 99.55     LegendNANA
23:00 Legend Double Dagger 11.6 11.4 99 36 1 24.1 99.54     Clear

Notes on Data Quality.

Legend

  • E = Estimated
  • M = Missing
  • NA = Not Available
  • ‡ = Partner data that is not subject to review by the National Climate Archives
Date modified: